Dean International
Flight School

Career Spotlight

Mika

Mika

Congratulations to Mika from Khazakstan. She recently sent us this photo of her flying an Airbus airliner.

More...
Mika's Success Story
close

Congratulations to Mika from Khazakstan. She recently sent us this photo of her flying an Airbus airliner.

Mario

Mario

My dreams could not have been realized if I wouldn't have been part of the Dean International family.

More...
Mario's Success Story
close

"My dreams could not have been realized if I wouldn't have been part of the Dean International family. Thank you Robert, thanks to all my co-workers, and thanks to all of my students!"

Fernando

Fernando

I am now working as a First Officer at TACA and am enjoying every moment of it.

More...
Fernando's Success Story
close

"Will never forget my time of flight training at Dean International. I am now working as a First Officer at TACA and am enjoying every moment of it."

Alvaro

Alvaro

Because of the flight time I was able to built while instructing, I got the experience needed to apply to an airline in Colombia.

More...
Alvaro's Success Story
close

Dean alumnus Alvaro Londoño currently flies with Tampa Cargo. He says of his experience at Dean: "I want to take this opportunity to thank you for giving me the chance to build my experience and expand my knowledge in Dean International. Because of the flight time I was able to built flight instructing, I got the experience needed to apply to an airline in Colombia."

Ralph

Ralph

Every Aruban student of Dean International has made it into Tiara Air Aruba, that is very nice.

More...
Ralph's Success Story
close

"Next to me is my Co-Pilot, Elison. This picture was taken on our first flight together, which was almost exactly 5 years after I finished at Dean International. [...] Every Aruban student of Dean International has made it into Tiara Air Aruba. [...] The future looks bright here in Aruba."

Rohaan

Rohaan

The [..] staff will all work diligently to help you finish your certificates as safely and efficiently as possible.

More...
Rohaan's Success Story
close

After receiving very hard times from other flight schools [...], I came to Dean International where Robert Dean personally sat down with me and gave me a financial and chronological look into how much remained to finish my private pilot certificate. Through his hard efforts as an instructor and mentor, I was able to finish my private pilot certificate within one week.

Welcome to Dean International

In over two decades, Dean International has educated over 7,000 pilots from all over the world, including over 1,000 students from India alone. By offering a great training experience, a friendly service staff, an ample variety of aircraft, and by improving constantly, we have become one of the largest, most prestigious FAA 141-approved flight schools in North America. Located in Miami, Florida, USA, our flight school offers an ideal location for year-round, "learn to fly" weather, flight training. Dean International is not only well-equipped to provide services to professional trainees but also caters to General Aviation renters. Visit or contact our headquarters at Kendall-Tamiami Executive Airport located in Miami, FL today to learn more about us, or simply read more about our programs if you are an international student interested in joining our school.

Local Airport Information
TAF FOR KTMB (Issued: Thu, October 23rd 2014 3:45 AM UTC)
TAF
      AMD KTMB 230242Z 2303/2324 VRB03KT P6SM -SHRA FEW025 OVC120
      FM231400 08010KT 5SM SHRA VCTS BKN035CB OVC150
     
METAR FOR KTMB (Issued: Thu, October 23rd 2014 4:53 AM UTC):
KTMB 230453Z 00000KT 10SM -RA FEW090 FEW120 24/22 A2994 RMK AO2 RAB0356 SLP137 P0000 T02440222 403060233

This weather information is provided by the National Weather Service.
It is automatically refreshed every three minutes.
TAF FOR KHST (Issued: Thu, October 23rd 2014 12:25 AM UTC)
TAF KHST 2300/2406 11005KT 9999 FEW010 SCT030 BKN080 QNH2992INS
      BECMG 2317/2318 08008KT 8000 -SHRA SCT030 BKN050 QNH2988INS
      BECMG 2320/2321 09009KT 9999 NSW SCT025 BKN100 QNH2987INS TX26/2320Z TN20/2311Z
     
METAR FOR KHST (Issued: Thu, October 23rd 2014 4:58 AM UTC):
KHST 230458Z AUTO 25002KT 10SM CLR 24/23 A2993 RMK AO2 DZB0401E0403B0446E0452 SLP138 P0000 T02350226 402790228

This weather information is provided by the National Weather Service.
It is automatically refreshed every three minutes.
TAF FOR KOPF (Issued: Thu, October 23rd 2014 3:45 AM UTC)
TAF
      AMD KOPF 230242Z 2303/2324 VRB03KT P6SM -SHRA FEW025 OVC110
      FM231400 07012KT 5SM SHRA VCTS BKN035CB OVC150
     
METAR FOR KOPF (Issued: Thu, October 23rd 2014 4:53 AM UTC):
KOPF 230453Z AUTO 04003KT 10SM FEW110 24/23 A2993 RMK AO2 RAB40E52 SLP137 P0000 T02440233 402940228

This weather information is provided by the National Weather Service.
It is automatically refreshed every three minutes.
TAF FOR KMIA (Issued: Thu, October 23rd 2014 3:48 AM UTC)
TAF
      AMD KMIA 230242Z 2303/2324 VRB03KT P6SM -SHRA FEW015 OVC120
      FM231400 07012KT 5SM SHRA VCTS BKN035CB OVC150
     
METAR FOR KMIA (Issued: Thu, October 23rd 2014 4:53 AM UTC):
KMIA 230453Z 00000KT 10SM FEW020 SCT120 OVC160 24/23 A2993 RMK AO2 RAB17E42 SLP136 P0000 T02390228 402940233

This weather information is provided by the National Weather Service.
It is automatically refreshed every three minutes.
Design by Ariel Llizo
© Dean International Inc. 2012